DILIA BGMV-BGCO

Flight info

Callsign DILIA
Flight time 0h 26m
Altitude 11000
Route KUNUG DCT FEBOT
Aircraft C525/L-SDFGRWY/S

Departure

Time 2026-05-09 08:31
Airport Mestersvig Airport (BGMV)

Arrival

Time 2026-05-09 08:57
Airport Neerlerit Inaat Airport (BGCO)
Time Latitude Longitude Altitude Speed Heading
2026-05-09 08:15 72.23427 -23.91098 7 ft 0 kts 20°
2026-05-09 08:29 72.23437 -23.91087 8 ft 3 kts 19°
2026-05-09 08:30 72.23473 -23.91038 9 ft 8 kts 14°
2026-05-09 08:30 72.23515 -23.91138 10 ft 7 kts 267°
2026-05-09 08:30 72.23521 -23.91289 10 ft 5 kts 290°
2026-05-09 08:30 72.23624 -23.92035 11 ft 64 kts 293°
2026-05-09 08:31 72.23853 -23.93867 36 ft 108 kts 292°
2026-05-09 08:31 72.24123 -23.96203 464 ft 113 kts 293°
2026-05-09 08:31 72.24759 -23.97504 892 ft 118 kts 10°
2026-05-09 08:31 72.25172 -23.95558 1286 ft 132 kts 91°
2026-05-09 08:32 72.24681 -23.92423 1595 ft 179 kts 128°
2026-05-09 08:32 72.23789 -23.89036 2149 ft 214 kts 131°
2026-05-09 08:32 72.21723 -23.81564 4023 ft 236 kts 131°
2026-05-09 08:33 72.20615 -23.77579 5011 ft 242 kts 131°
2026-05-09 08:33 72.19483 -23.73509 5981 ft 247 kts 131°
2026-05-09 08:33 72.18319 -23.69325 6965 ft 251 kts 131°
2026-05-09 08:33 72.17148 -23.65125 7865 ft 256 kts 131°
2026-05-09 08:34 72.15964 -23.60884 8757 ft 260 kts 131°
2026-05-09 08:34 72.14741 -23.56512 9635 ft 263 kts 131°
2026-05-09 08:34 72.13500 -23.52079 10435 ft 268 kts 131°
2026-05-09 08:34 72.12225 -23.47537 10946 ft 283 kts 131°
2026-05-09 08:35 72.10874 -23.42740 11007 ft 295 kts 131°
2026-05-09 08:35 72.09474 -23.37775 10994 ft 303 kts 131°
2026-05-09 08:35 72.08039 -23.32695 11006 ft 310 kts 132°
2026-05-09 08:35 72.06564 -23.27488 11014 ft 316 kts 132°
2026-05-09 08:36 72.05097 -23.22326 10992 ft 306 kts 132°
2026-05-09 08:36 72.03689 -23.17375 10985 ft 295 kts 132°
2026-05-09 08:36 72.02319 -23.12573 10975 ft 287 kts 132°
2026-05-09 08:36 72.00979 -23.07885 10978 ft 281 kts 132°
2026-05-09 08:37 71.99676 -23.03343 10951 ft 276 kts 132°
2026-05-09 08:37 71.98380 -22.98829 10964 ft 275 kts 132°
2026-05-09 08:37 71.97064 -22.94253 10985 ft 279 kts 132°
2026-05-09 08:37 71.95714 -22.89731 10964 ft 283 kts 137°
2026-05-09 08:38 71.93959 -22.87049 11007 ft 284 kts 166°
2026-05-09 08:38 71.92014 -22.85866 10996 ft 287 kts 171°
2026-05-09 08:38 71.90031 -22.84998 10982 ft 289 kts 173°
2026-05-09 08:38 71.88046 -22.84220 10975 ft 290 kts 173°
2026-05-09 08:39 71.86034 -22.83457 10978 ft 290 kts 173°
2026-05-09 08:39 71.84042 -22.82708 10980 ft 291 kts 173°
2026-05-09 08:39 71.82052 -22.81963 10990 ft 291 kts 173°
2026-05-09 08:39 71.80061 -22.81219 10988 ft 292 kts 173°
2026-05-09 08:40 71.78029 -22.80460 10984 ft 292 kts 174°
2026-05-09 08:40 71.76003 -22.79706 10974 ft 293 kts 174°
2026-05-09 08:40 71.73987 -22.78956 10985 ft 293 kts 174°
2026-05-09 08:40 71.71967 -22.78207 10977 ft 293 kts 174°
2026-05-09 08:41 71.69935 -22.77455 10958 ft 294 kts 174°
2026-05-09 08:41 71.67924 -22.76711 10961 ft 294 kts 174°
2026-05-09 08:41 71.65884 -22.75959 10937 ft 295 kts 174°
2026-05-09 08:41 71.63872 -22.75218 10921 ft 295 kts 174°
2026-05-09 08:42 71.61848 -22.74475 10920 ft 294 kts 174°
2026-05-09 08:42 71.59817 -22.73730 10907 ft 295 kts 174°
2026-05-09 08:42 71.57786 -22.72987 10901 ft 295 kts 174°
2026-05-09 08:42 71.55775 -22.72253 10900 ft 295 kts 174°
2026-05-09 08:43 71.53730 -22.71508 10889 ft 295 kts 174°
2026-05-09 08:43 71.51701 -22.70771 10883 ft 295 kts 174°
2026-05-09 08:43 71.49665 -22.70032 10883 ft 295 kts 174°
2026-05-09 08:43 71.47631 -22.69296 10889 ft 295 kts 174°
2026-05-09 08:44 71.45604 -22.68564 10890 ft 296 kts 174°
2026-05-09 08:44 71.43578 -22.67835 10886 ft 296 kts 174°
2026-05-09 08:44 71.41526 -22.67096 10889 ft 296 kts 174°
2026-05-09 08:44 71.39486 -22.66365 10891 ft 296 kts 174°
2026-05-09 08:45 71.37467 -22.65642 10889 ft 296 kts 174°
2026-05-09 08:45 71.35420 -22.64910 10891 ft 296 kts 174°
2026-05-09 08:45 71.33379 -22.64182 10904 ft 296 kts 174°
2026-05-09 08:45 71.31355 -22.63462 10896 ft 296 kts 174°
2026-05-09 08:46 71.29298 -22.62732 10900 ft 296 kts 174°
2026-05-09 08:46 71.27262 -22.62011 10899 ft 296 kts 174°
2026-05-09 08:46 71.25214 -22.61287 10919 ft 296 kts 174°
2026-05-09 08:46 71.23178 -22.60569 10922 ft 297 kts 174°
2026-05-09 08:47 71.21130 -22.59848 10913 ft 297 kts 174°
2026-05-09 08:47 71.19083 -22.59129 10919 ft 297 kts 174°
2026-05-09 08:47 71.17030 -22.58409 10928 ft 297 kts 174°
2026-05-09 08:47 71.14996 -22.57698 10927 ft 298 kts 174°
2026-05-09 08:48 71.12959 -22.56986 10912 ft 286 kts 174°
2026-05-09 08:48 71.10992 -22.56301 10165 ft 285 kts 174°
2026-05-09 08:48 71.09130 -22.55651 9369 ft 263 kts 174°
2026-05-09 08:48 71.07314 -22.55021 8595 ft 265 kts 174°
2026-05-09 08:49 71.05496 -22.54398 7809 ft 265 kts 174°
2026-05-09 08:49 71.03688 -22.53779 7032 ft 264 kts 173°
2026-05-09 08:49 71.01870 -22.53633 6241 ft 261 kts 182°
2026-05-09 08:49 71.00111 -22.53925 5755 ft 250 kts 183°
2026-05-09 08:50 70.98401 -22.54293 5083 ft 248 kts 184°
2026-05-09 08:50 70.96695 -22.54668 4412 ft 246 kts 183°
2026-05-09 08:50 70.95016 -22.55028 3851 ft 240 kts 184°
2026-05-09 08:50 70.93398 -22.55418 3552 ft 226 kts 184°
2026-05-09 08:51 70.91901 -22.55771 3499 ft 205 kts 184°
2026-05-09 08:51 70.90535 -22.56064 3347 ft 194 kts 183°
2026-05-09 08:51 70.89242 -22.56332 3178 ft 176 kts 183°
2026-05-09 08:51 70.88068 -22.56573 2933 ft 164 kts 183°
2026-05-09 08:52 70.86970 -22.56799 2726 ft 154 kts 183°
2026-05-09 08:52 70.85945 -22.57012 2576 ft 137 kts 183°
2026-05-09 08:52 70.85044 -22.57198 2379 ft 125 kts 183°
2026-05-09 08:52 70.84222 -22.57369 2290 ft 111 kts 183°
2026-05-09 08:53 70.83484 -22.57522 2289 ft 105 kts 183°
2026-05-09 08:53 70.82765 -22.57672 2335 ft 104 kts 183°
2026-05-09 08:53 70.82044 -22.57822 2173 ft 105 kts 183°
2026-05-09 08:53 70.81308 -22.57975 1993 ft 106 kts 183°
2026-05-09 08:54 70.80579 -22.58126 1863 ft 104 kts 183°
2026-05-09 08:54 70.79867 -22.58273 1735 ft 101 kts 183°
2026-05-09 08:54 70.79172 -22.58417 1625 ft 103 kts 183°
2026-05-09 08:54 70.78444 -22.58568 1542 ft 108 kts 183°
2026-05-09 08:55 70.77694 -22.58722 1378 ft 109 kts 183°
2026-05-09 08:55 70.76942 -22.58877 1229 ft 107 kts 183°
2026-05-09 08:55 70.76209 -22.59028 1106 ft 103 kts 183°
2026-05-09 08:55 70.75506 -22.59159 1042 ft 103 kts 182°
2026-05-09 08:56 70.74762 -22.59312 1048 ft 107 kts 183°
2026-05-09 08:56 70.74041 -22.59462 1048 ft 103 kts 183°
2026-05-09 08:56 70.73341 -22.59612 1021 ft 99 kts 187°
2026-05-09 08:56 70.72798 -22.60737 749 ft 98 kts 241°
2026-05-09 08:57 70.72661 -22.62661 522 ft 93 kts 276°
2026-05-09 08:57 70.73051 -22.64031 315 ft 96 kts 353°
2026-05-09 08:57 70.73738 -22.64336 35 ft 101 kts 339°
2026-05-09 08:57 70.74268 -22.64986 -5 ft 44 kts 338°
2026-05-09 08:58 70.74399 -22.65127 -2 ft 5 kts 21°
2026-05-09 08:58 70.74377 -22.65135 -3 ft 13 kts 150°
2026-05-09 08:58 70.74323 -22.65031 -4 ft 13 kts 125°
2026-05-09 08:58 70.74342 -22.64803 -6 ft 13 kts 68°
2026-05-09 08:59 70.74353 -22.64693 -7 ft 0 kts 143°